Погода в Риге

Погода в Риге : погода сейчас, прогноз погоды и архив. Всё, что Вы хотите узнать о погоде в Риге!

Поиск расширенной информации на нашем сайте:

Другие новости

Новости СМИ2

Главная страница сайта

Новости сайта

03.07.2017

Напоминаем, что на нашем специализированном сайте Метеоцентр.Азия вы можете получить высокодетализированные автоматические прогнозы погоды по пунктам России, СНГ и мира в авиационном формате (включающие направление и скорость ветра, видимость, явления погоды, количество и форму облачности, нижнюю и верхнюю границу облачности).


Погода в Риге - сегодня

Время (UTC), дата Ветер
(°,м/с) 
Видим.   Явления Облачность Т
(°С)
Тd
(°С)
f(%) Тe
(°С)
Pmin
(гПа)
dP
(гПа)
Po
(мм)
O2
(г/м3)
Тmin Tmax R s Состояние
почвы
21 19.11.17 170 (Ю) 4000 м  слаб. ливневой дождь{морось}  10/0 кучево-дожд. 
[Cb cap]
+2.4 +1.6 94 +2  999.2  0.9  749  298           
00 20.11.17 100 (В) 4000 м  слаб. ливневой дождь{морось}  10/0 кучево-дожд. 
[Cb cap]
+2 +1.4 96 +3  999.7  0.5  747  298           
03 20.11.17 170 (Ю) 4000 м  слаб. ливневой дождь  10/0 кучево-дожд. 
[Cb cap]
+2.8 +2.2 96 +4  1000.5  0.8  750  298           
06 20.11.17 170 (Ю) 4000 м  слаб. ливневой дождь  10/0 кучево-дожд. 
[Cb cap]
+2.9 +2.3 96 +4  1001.7  1.2  751  298  +1.8       
09 20.11.17 180 (Ю) 4000 м  дымка{ливн. осадки}  10/0 
[St]
+3.3 +2.5 94 +4  1003.2  1.5  752  298           
12 20.11.17 170 (Ю) 4000 м  дымка{ливн. осадки}  10/0 
[Sc]
+3.8 +2.2 89 +5  1003.9  0.7  750  298           
15 20.11.17 тихо ()   4000 м  дымка  8/0 средняя 
[Sc|Ac trans]
+2.9 +1.8 92 +3  1005  1.1  753  299           
18 20.11.17 150 (ЮВ) 4000 м  дымка  9/0 средняя 
[Sc|Ac trans]
+3.2 +2.4 94 +4  1005.9  0.9  754  299    +3.9  0.0     
21 20.11.17 210 (ЮЗ) 4000 м  в посл. час морось  9/0 средняя 
[St|Ac trans]
+2.7 +1.9 94 +3  1006.8  0.9  754  300           
00 21.11.17 тихо ()   4000 м  слаб. морось  10/0 
[St]
+2.6 +1.2 90 +3  1007.3  0.5  752  300           
03 21.11.17 210 (ЮЗ) 10 км  {морось}  9/0 средняя 
[St|Ac trans]
+1.5 +0.1 90 +2  1007.8  0.5  755  302           
06 21.11.17 190 (Ю) 10 км  {морось}  9/0 средняя 
[Sc|Ac trans]
+0.5 -0.7 92 1008.1  0.3  755  303  +0.5    0.3     
09 21.11.17 170 (Ю) 10 км    9/0 средняя, верхняя 
[Cu Sc|Ac trans|Ci fib]
+1.1 +0.2 94 1009  0.9  756  303           
12 21.11.17 200 (Ю) 2000 м  дымка  10/0 
[St]
+1.7 +0.8 94 +1  1009  754  302           
15 21.11.17 220 (ЮЗ) 0500 м  туман  ?/?  
+0.5 +0 96 1009.4  0.4  756  303           
18 21.11.17 160 (Ю) 0500 м  туман  ?/?  
+0.5 +0.2 98 1009.8  0.4  757  304    +1.8       
21 21.11.17 150 (ЮВ) 1000 м  слаб. снег{туман}  10/0 средняя 
[As op]
+0.6 +0.3 98 1010.3  0.5  757  304           
00 22.11.17 190 (Ю) 4000 м  дымка{снег, туман}  10/0 
[Sc]
+1 +0.5 96 1011.1  0.8  755  303           
03 22.11.17 180 (Ю) 10 км    9/0 
[Sc]
+0.6 -0.5 92 -1  1011.8  0.7  758  304           
06 22.11.17 150 (ЮВ) 2000 м  дымка  10/0 
[St]
-0.1 -0.9 94 -1  1012.8  0.9  759  305  -0.1    0.1     
09 22.11.17 160 (Ю) 1000 м  в посл. час туман  10/0 
[St]
-1.4 -1.7 98 -4  1014.3  1.5  760  307           
12 22.11.17 160 (Ю) 4000 м  дымка{туман}  10/0 
[Sc]
+0.3 -1.2 90 -2  1014.8  0.5  758  305           
15 22.11.17 140 (ЮВ) 10 км    10/0 
[Sc]
+0.6 -1.2 88 1015.6  0.8  761  305           
18 22.11.17 130 (ЮВ) 10 км    6/0 
[Sc]
+0 -1.8 88 -2  1015.8  0.2  761  306    +0.9       
21 22.11.17 120 (ЮВ) 10 км    8/0 
[Sc]
+0.3 -1.8 86 -3  1015.5  -0.3  761  306           
Время (UTC), дата Ветер
(°,м/с) 
Видим.   Явления Облачность Т
(°С)
Тd
(°С)
f(%) Тe
(°С)
Pmin
(гПа)
dP
(гПа)
Po
(мм)
O2
(г/м3)
Тmin Tmax R s Состояние
почвы

Для получения пояснительной информации подведите курсор к названию столбца.

ПОГОДА в Риге - архив

Всё, что Вы хотите узнать о погоде в Риге - удобно и подробно!

Выберите нужную дату (начиная с 1 января 2015* года) и нажмите кнопку "Найти".
Будут отображены архивные сводки погоды по пункту Рига, начиная с указанной даты.


Отображать данные в формате CSV (для использования в таблицах Excel)


Внимание! Наш архив погоды предназначен исключительно для личного некоммерческого использования в познавательных целях. Если Вам необходимы официальные справки о состоянии погоды (для производственных, юридических, коммерческих и т.п. целей), обращайтесь в органы Росгидромета.

*Примечание: данная дата относится к архиву по метеостанциям СССР (Россия, СНГ, Балтия).
Архив по метеостанциям Зарубежной Европы и Азии (кроме Китая) хранится 10 дней, по другим регионам земного шара (Китай, Африка, Америка, Австралия, Океания) - 1 день.

Рига - район местоположения метеостанции


Название, широта, долгота, высота метеостанции:
Рига 57°ш. 24.1°д. 7 м над ур. моря [Латвия]

Дополнительная информация

В oтличие oт бoльшинства пoгoдных сайтoв мы публикуем пoдрoбную метеoинфoрмацию в детальнoм прoфессиoнальнoм фoрмате.

Характеристики температуры и влажнoсти вoздуха измеряются на высoте 2 м в тени вдали oт зданий и деревьев.
Скoрoсть ветра измеряется на высoте 10 м (на урoвне рoста челoвека скoрoсть ветра ниже в 1.5-2 раза). Если метеoстанция нахoдится в гoрoде или в лесу, тo скoрoсть ветра занижена на 2-4 м/с пo сравнению с oткрытым местoм. Скoрoсть ветра над акватoриями крупных рек и oзёр, а также на вершинах хoлмoв на 2-5 м/с выше, чем в oбычных услoвиях.
Атмoсфернoе давление в разных тoчках местнoсти мoжет значительнo oтличаться oт давления на метеoстанции, в зависимoсти oт услoвий рельефа (при пoдъёме на 10 м давление пoнижается примернo на 1 мм рт.ст.).